Regional Weather Roundup
Issued by NWS Albany, NY

Home | Current Version | Previous Version | Text Only | Print | Product List | Glossary On
Versions: 1 2 3 4 5 6 7 8 9 10 11 12 13 14 15 16 17 18 19 20 21 22 23 24 25 26 27 28 29 30 31 32 33 34 35 36 37 38 39 40 41 42 43 44 45 46 47 48 49 50
431
ASUS41 KALY 222010
RWRALY

NEW YORK STATE HOURLY WEATHER ROUNDUP
NATIONAL WEATHER SERVICE ALBANY NY
400 PM EDT SUN APR 22 2018

NOTE: "FAIR" INDICATES FEW OR NO CLOUDS BELOW 12,000 FEET WITH NO
SIGNIFICANT WEATHER AND/OR NO OBSTRUCTIONS TO VISIBILITY.

NYZ032-033-038>043-046>054-057>066-NYZ062>081-082-084-222100-
EAST


CITY           SKY/WX    TMP DP  RH WIND       PRES   REMARKS
ALBANY         FAIR      64  11  12 N9G21     30.32F
GLENS FALLS    FAIR      59  11  15 N10       30.32F
POUGHKEEPSIE   FAIR      63  16  16 N9G16     30.31F
NEWBURGH       SUNNY     64  21  19 VRB7      30.32F
MONTGOMERY     FAIR      65  18  16 NE7       30.29F
WHITE PLAINS   FAIR      62  15  16 NW6       30.31F
ISLIP          FAIR      58  27  30 S15       30.34F
NEW YORK CITY  FAIR      64  24  21 S14       30.33F
CENTRAL PARK   FAIR      65  12  12 SW6       30.35F
$$

NYZ005>009-017-018-044>046-055-056-222100-
CENTRAL


CITY           SKY/WX    TMP DP  RH WIND       PRES   REMARKS
FULTON         FAIR      57  16  20 N7        30.40F
SYRACUSE       FAIR      60  21  22 N13G22    30.38F
ROME           FAIR      61  17  18 N9G23     30.36F
ELMIRA         FAIR      63  22  20 NE8       30.36F
BINGHAMTON     FAIR      57  18  21 N14G23    30.34F
MONTICELLO     FAIR      60  16  18 W7G18     30.33F
$$

NYZ026>034-041>043-087-222100-
NORTH


CITY           SKY/WX    TMP DP  RH WIND       PRES   REMARKS
WATERTOWN      FAIR      56  22  26 SW12      30.38F
FORT DRUM      NOT AVBL
OGDENSBURG     FAIR      62  18  18 NW6       30.37F
MASSENA        FAIR      60  18  19 N12       30.39F
SARANAC LAKE   FAIR      51   9  18 VRB7      30.33F
PLATTSBURGH    NOT AVBL
$$

NYZ001>004-010>016-019>021-085-222100-
WEST


CITY           SKY/WX    TMP DP  RH WIND       PRES   REMARKS
NIAGARA FALLS  FAIR      62  20  19 N10       30.38F
BUFFALO        FAIR      61  25  25 E9        30.38F
DUNKIRK        FAIR      58  23  26 N13G20    30.37F
JAMESTOWN      FAIR      58  15  18 VRB3      30.34F
WELLSVILLE     FAIR      59  16  18 SE8       30.36F
ROCHESTER      FAIR      61  18  18 NE8       30.39F
PENN YAN       FAIR      61  18  18 VRB7G17   30.38F
$$

             KEY
       WCI = WIND CHILL INDEX
       VSB = VISIBILITY
       HX  = HEAT INDEX
$$




USA.gov is the U.S. government's official web portal to all federal, state and local government web resources and services.